Regional Weather Roundup
Issued by NWS

Home | Current Version | Previous Version | Text Only | Print | Product List | Glossary Off
Versions: 1 2 3 4 5 6 7 8 9 10 11 12 13 14 15 16 17 18 19 20 21 22 23 24 25 26 27 28 29 30 31 32 33 34 35 36 37 38 39 40 41 42 43 44 45 46 47 48 49 50

000
ASUS43 KOAX 040410
RWRNE

WEATHER ROUNDUP FOR NEBRASKA
NATIONAL WEATHER SERVICE OMAHA NE
1100 PM CDT SUN MAY 03 2015

NOTES: SATELLITE DATA IS BEING USED TO AUGMENT CLOUD COVER ABOVE
       12000 FEET.
       "FAIR" INDICATES FEW OR NO CLOUDS BELOW 12,000 FEET WITH NO
       SIGNIFICANT WEATHER AND/OR OBSTRUCTIONS TO VISIBILITY.

  * THESE STATIONS DO NOT REPORT WEATHER SUCH AS RAIN...SNOW OR FOG.

NEZ001>004-019>022-054>056-040500-
NEBRASKA PANHANDLE

CITY           SKY/WX    TMP DP  RH WIND       PRES   REMARKS
SCOTTSBLUFF    CLOUDY    56  41  57 E9        30.05R
ALLIANCE       MOCLDY    54  42  64 NE12      30.05R
CHADRON        MOCLDY    52  40  63 E7        30.04R
KIMBALL        CLOUDY    53  44  70 E8        30.05R
SIDNEY         CLOUDY    57  40  52 E10       30.05R
$$

NEZ057>060-069>072-079>082-040500-
SOUTHWEST NEBRASKA

CITY           SKY/WX    TMP DP  RH WIND       PRES   REMARKS
NORTH PLATTE   CLOUDY    60  40  47 NE18G25   29.97R
IMPERIAL       CLOUDY    62  41  46 N14       29.98R
LEXINGTON      MOCLDY    64  42  44 NE21      29.93R
MCCOOK         MOCLDY    67  44  43 NE22G29   29.90R
OGALLALA       CLOUDY    60  40  48 NE9       30.01R
$$

NEZ005>010-023>029-035>040-094-040500-
NORTH CENTRAL NEBRASKA

CITY           SKY/WX    TMP DP  RH WIND       PRES   REMARKS
VALENTINE      MOCLDY    57  33  40 NE13      30.03R
AINSWORTH      CLEAR     57  35  43 NE10      30.02R
BROKEN BOW     PTCLDY    63  39  41 NE20      29.95R
O`NEILL        MOCLDY    60  40  47 N12       29.99R
ORD            MOCLDY    63  37  38 NE18G28   29.93R
THEDFORD       CLOUDY    56  39  52 NE6       30.02R
$$

NEZ041-046>049-061>064-073>077-083>087-040500-
SOUTH CENTRAL NEBRASKA

CITY           SKY/WX    TMP DP  RH WIND       PRES   REMARKS
GRAND ISLAND   CLEAR     67  44  43 N22G33    29.88R
AURORA         CLEAR     68  54  61 N17       29.85R
HASTINGS       PTCLDY    68  46  45 N21G35    29.86R
HEBRON         PTCLDY    74  56  52 SW8       29.83R
HOLDREGE       PTCLDY    65  46  48 N22G30    29.89S
KEARNEY *      PTCLDY    66  45  45 N22       29.90R
YORK           PTCLDY    68  54  60 NE16G23   29.84R
$$

NEZ011>018-030>034-042>045-040500-
NORTHEAST NEBRASKA

CITY           SKY/WX    TMP DP  RH WIND       PRES   REMARKS
NORFOLK        PTCLDY    65  41  41 NE17      29.93R
ALBION         CLEAR     63  40  43 N15G23    29.93R
BLAIR          CLOUDY    68  53  58 NW10G21   29.86R
COLUMBUS *     PTCLDY    64  52  63 NE15      29.90R
FREMONT        MOCLDY    65  53  64 N9        29.86R
TEKAMAH        CLOUDY    67  50  54 N16       29.86R
WAYNE          MOCLDY    60  47  62 N20       29.95R THUNDER
$$

NEZ050>053-065>068-078-088>093-040500-
SOUTHEAST NEBRASKA

CITY           SKY/WX    TMP DP  RH WIND       PRES   REMARKS
LINCOLN        CLOUDY    66  58  75 NE8       29.85R
OMAHA EPPLEY   CLOUDY    73  54  51 S6        29.82S
BEATRICE       CLOUDY    71  58  65 SE9       29.85R
FALLS CITY     CLOUDY    73  56  54 N10       29.89R
NEBRASKA CITY  CLOUDY    68  52  57 S15       29.81R
PLATTSMOUTH    RAIN      67  54  62 W8        29.87R
$$

NEZ044-045-051>053-067-040500-
OMAHA AREA

CITY           SKY/WX    TMP DP  RH WIND       PRES   REMARKS
OMAHA EPPLEY   CLOUDY    73  54  51 S6        29.82S
BLAIR          CLOUDY    68  53  58 NW10G21   29.86R
FREMONT        MOCLDY    65  53  64 N9        29.86R
MILLARD        LGT RAIN  69  59  70 SE6       29.83F
OFFUTT AFB     PTCLDY    74  54  49 W5        29.84R
PLATTSMOUTH    RAIN      67  54  62 W8        29.87R
WAHOO          HVY RAIN  66  57  72 E6        29.88R
$$



USA.gov is the U.S. government's official web portal to all federal, state and local government web resources and services.